Weather reports worldwide

Advertisment
Ueckermünde, Germany (10193): temperature & dewpoint: 10.01.2018 08:00:00 - 16.01.2018 08:00:00 (CET)Ueckermünde, Germany (10193): temperature 5cm & temperature -5cm: 10.01.2018 08:00:00 - 16.01.2018 08:00:00 (CET)Ueckermünde, Germany (10193): temperature -20cm & temperature -100cm: 10.01.2018 08:00:00 - 16.01.2018 08:00:00 (CET)Ueckermünde, Germany (10193): wind speed & gusts: 10.01.2018 08:00:00 - 16.01.2018 08:00:00 (CET)Ueckermünde, Germany (10193): wind direction: 10.01.2018 08:00:00 - 16.01.2018 08:00:00 (CET)Ueckermünde, Germany (10193): reduced air pressure: 10.01.2018 08:00:00 - 16.01.2018 08:00:00 (CET)Ueckermünde, Germany (10193): visibility: 10.01.2018 08:00:00 - 16.01.2018 08:00:00 (CET)Ueckermünde, Germany (10193): sunshine duration: 10.01.2018 08:00:00 - 16.01.2018 08:00:00 (CET)Ueckermünde, Germany (10193): precipitation: 10.01.2018 08:00:00 - 16.01.2018 08:00:00 (CET)
Date & Time tt [°C] td [°C] tt 5cm [°C] tt -5cm [°C] tt -20cm [°C] tt -100cm [°C] ff [km/h] ff [kn] fx [km/h] fx [kn] dd ppp [hPa] vv [km] sd [min] rr [mm]
16.01.2018 08:00:00 0,7 0,5 0,0 0,0 1,2 4,7 18 10 40 22 S 989,9 25 0 0,0
16.01.2018 07:00:00 0,4 0,4 -0,1 0,0 1,2 4,7 23 12 45 24 S 990,2 13 0 0,9
16.01.2018 06:00:00 -0,1 -0,1 -0,3 -0,1 1,2 4,7 32 17 49 26 S 990,6 1,0 0 0,9
16.01.2018 05:00:00 0,2 -0,7 -0,1 -0,1 1,2 4,7 31 17 54 29 S 991,8 6 0 0,2
16.01.2018 04:00:00 -0,3 -1,2 -0,5 -0,1 1,2 4,7 36 19 65 35 SSE 992,7 3,2 0 0,1
16.01.2018 03:00:00 0,2 -2,3 -0,2 -0,1 1,2 4,7 37 20 62 34 SSE 994,4 6 0 0,0
16.01.2018 02:00:00 0,9 -3,5 0,4 -0,1 1,2 4,7 37 20 61 33 SSE 996,0 14 0 0,0
16.01.2018 01:00:00 0,6 -3,7 0,0 -0,1 1,2 4,7 35 19 54 29 SSE 997,4 17 0 0,0
16.01.2018 00:00:00 0,6 -3,5 -0,1 -0,1 1,2 4,7 32 17 53 29 SSE 999,1 17 0 0,0
15.01.2018 23:00:00 0,2 -3,3 -0,4 -0,2 1,3 4,7 31 17 53 29 SSE 1000,7 15 0 0,0
15.01.2018 22:00:00 0,0 -3,2 -1,0 -0,1 1,3 4,8 33 18 53 29 SSE 1002,5 14 0 0,0
15.01.2018 21:00:00 0,5 -3,6 0,1 -0,1 1,3 4,8 33 18 58 31 SSE 1004,2 13 0 0,0
15.01.2018 20:00:00 0,2 -3,7 -0,3 -0,2 1,3 4,8 33 18 59 32 SSE 1005,4 13 0 0,0
15.01.2018 19:00:00 -0,5 -4,0 -1,3 -0,2 1,3 4,8 34 18 54 29 SSE 1006,8 10 0 0,0
15.01.2018 18:00:00 -0,4 -3,9 -1,7 -0,1 1,3 4,8 29 16 48 26 SSE 1008,1 10 0 0,0
15.01.2018 17:00:00 0,0 -3,8 -1,0 0,0 1,3 4,8 26 14 44 24 SSE 1009,8 11 0 0,0
15.01.2018 16:00:00 0,5 -3,7 -0,7 0,0 1,3 4,8 28 15 45 24 SSE 1011,1 15 38 0,0
15.01.2018 15:00:00 0,9 -3,7 0,7 -0,1 1,3 4,8 29 16 54 29 SSE 1012,6 11 60 0,0
15.01.2018 14:00:00 0,7 -4,0 1,0 -0,1 1,3 4,8 31 17 58 31 SSE 1013,8 9 60 0,0
15.01.2018 13:00:00 -0,1 -4,5 0,3 -0,1 1,3 4,8 29 16 43 23 SSE 1015,5 8 60 0,0
15.01.2018 12:00:00 -1,3 -5,0 -0,9 -0,1 1,3 4,8 26 14 44 24 SSE 1017,5 8 60 0,0
15.01.2018 11:00:00 -2,3 -5,5 -2,2 -0,2 1,3 4,8 23 13 40 22 SSE 1019,0 8 27 0,0
15.01.2018 10:00:00 -3,2 -5,8 -2,9 -0,3 1,3 4,8 19 11 38 21 SSE 1020,0 8 0 0,0
15.01.2018 09:00:00 -3,8 -6,1 -3,6 -0,4 1,4 4,8 15 8 30 16 SSE 1021,1 7 0 0,0
15.01.2018 08:00:00 -4,0 -6,2 -4,1 -0,5 1,4 4,8 19 10 36 19 SSE 1022,1 7 0 0,0
15.01.2018 07:00:00 -4,4 -6,4 -5,6 -0,4 1,4 4,8 18 10 29 16 SSE 1022,5 8 0 0,0
15.01.2018 06:00:00 -4,0 -6,3 -5,3 -0,2 1,4 4,8 16 9 29 15 SSE 1023,1 9 0 0,0
15.01.2018 05:00:00 -3,5 -6,0 -4,9 -0,1 1,4 4,8 16 8 30 16 SSE 1024,3 9 0 0,0
15.01.2018 04:00:00 -3,2 -5,8 -4,7 0,0 1,4 4,8 14 8 24 13 SSE 1025,1 10 0 0,0
15.01.2018 03:00:00 -3,0 -5,5 -4,7 0,1 1,4 4,8 14 8 24 13 SSE 1026,1 10 0 0,0
15.01.2018 02:00:00 -2,5 -5,5 -3,6 0,1 1,4 4,8 14 8 29 16 SSE 1027,0 9 0 0,0
15.01.2018 01:00:00 -2,2 -5,4 -3,0 0,1 1,5 4,8 19 10 32 17 SSE 1027,7 9 0 0,0
15.01.2018 00:00:00 -1,9 -5,4 -2,1 0,2 1,5 4,8 15 8 32 17 SSE 1028,1 10 0 0,0
14.01.2018 23:00:00 -1,8 -5,3 -2,3 0,2 1,5 4,8 16 8 29 16 SSE 1028,6 11 0 0,0
14.01.2018 22:00:00 -2,0 -5,5 -2,7 0,2 1,5 4,9 12 6 26 14 SSE 1028,8 12 0 0,0
14.01.2018 21:00:00 -1,9 -5,8 -2,4 0,2 1,5 4,9 12 7 30 16 SE 1029,1 13 0 0,0
14.01.2018 20:00:00 -1,9 -5,9 -2,2 0,2 1,5 4,9 15 8 29 16 SSE 1029,7 14 0 0,0
14.01.2018 19:00:00 -2,1 -5,9 -2,3 0,2 1,5 4,9 15 8 32 17 SSE 1029,9 15 0 0,0
14.01.2018 18:00:00 -2,1 -6,1 -2,3 0,2 1,5 4,9 12 6 28 15 SSE 1030,1 16 0 0,0
14.01.2018 17:00:00 -2,2 -6,5 -2,4 0,2 1,5 4,9 11 6 27 14 SE 1030,6 18 0 0,0
14.01.2018 16:00:00 -2,3 -6,9 -2,3 0,2 1,5 4,9 20 11 33 18 SSE 1030,8 16 0 0,0
14.01.2018 15:00:00 -2,1 -6,7 -1,9 0,2 1,5 4,9 16 9 29 16 SSE 1030,8 18 0 0,0
14.01.2018 14:00:00 -2,4 -7,1 -2,0 0,2 1,5 4,9 16 9 28 15 SE 1031,2 15 0 0,0
14.01.2018 13:00:00 -2,2 -6,9 -1,8 0,2 1,5 4,9 13 7 31 17 SE 1031,7 14 0 0,0
14.01.2018 12:00:00 -2,1 -6,9 -1,5 0,2 1,5 4,9 19 11 30 16 SE 1032,3 19 0 0,0
14.01.2018 11:00:00 -2,0 -6,3 -1,6 0,2 1,6 4,9 14 8 26 14 ESE 1032,5 16 29 0,0
14.01.2018 10:00:00 -2,2 -6,7 -3,3 0,2 1,6 4,9 12 7 23 13 ESE 1032,5 16 43 0,0
14.01.2018 09:00:00 -2,9 -6,7 -4,3 0,3 1,6 4,9 10 5 23 12 ESE 1032,3 14 0 0,0
14.01.2018 08:00:00 -2,4 -6,5 -4,0 0,3 1,6 4,9 12 6 23 12 ESE 1032,4 19 0 0,0
14.01.2018 07:00:00 -1,3 -6,2 -2,5 0,3 1,6 4,9 13 7 24 13 SE 1032,3 18 0 0,0
14.01.2018 06:00:00 -0,9 -5,6 -1,3 0,3 1,6 4,9 11 6 29 16 ESE 1032,5 12 0 0,0
14.01.2018 05:00:00 -0,7 -5,4 -1,3 0,4 1,6 4,9 12 6 26 14 ESE 1032,4 17 0 0,0
14.01.2018 04:00:00 -0,5 -5,4 -1,0 0,4 1,6 4,9 12 6 24 13 ESE 1032,7 18 0 0,0
14.01.2018 03:00:00 -0,4 -5,2 -0,9 0,4 1,6 4,9 11 6 22 12 ESE 1032,9 19 0 0,0
14.01.2018 02:00:00 -0,3 -5,5 -0,8 0,4 1,6 4,9 11 6 30 16 SE 1032,9 19 0 0,0
14.01.2018 01:00:00 -0,4 -5,4 -0,8 0,4 1,6 4,9 11 6 25 13 SE 1033,2 20 0 0,0
14.01.2018 00:00:00 -0,4 -5,3 -0,8 0,4 1,6 4,9 11 6 29 15 ESE 1033,6 21 0 0,0
13.01.2018 23:00:00 -0,3 -5,5 -0,8 0,4 1,6 4,9 11 6 28 15 ESE 1033,9 22 0 0,0
13.01.2018 22:00:00 -0,4 -5,3 -0,9 0,4 1,7 4,9 8 5 22 12 SE 1034,1 21 0 0,0
13.01.2018 21:00:00 -0,4 -4,9 -0,8 0,4 1,7 4,9 10 5 27 15 ESE 1034,1 18 0 0,0
13.01.2018 20:00:00 -0,6 -4,6 -1,0 0,4 1,7 4,9 12 6 25 13 ESE 1034,4 20 0 0,0
13.01.2018 19:00:00 -0,6 -4,1 -0,9 0,4 1,7 4,9 14 8 23 13 E 1034,2 25 0 0,0
13.01.2018 18:00:00 -0,5 -4,5 -0,9 0,5 1,7 5,0 10 6 17 9 E 1034,5 23 0 0,0
13.01.2018 17:00:00 -0,5 -5,0 -1,0 0,5 1,7 5,0 8 4 18 10 ESE 1034,4 23 0 0,0
13.01.2018 16:00:00 -0,6 -5,3 -1,0 0,5 1,7 5,0 10 5 24 13 SE 1034,2 25 0 0,0
13.01.2018 15:00:00 -0,9 -5,3 -1,0 0,5 1,7 5,0 10 6 27 15 SE 1034,4 19 0 0,0
13.01.2018 14:00:00 -0,9 -5,1 -1,0 0,5 1,7 5,0 13 7 33 18 ESE 1034,8 7 0 0,0
13.01.2018 13:00:00 -0,9 -5,0 -0,9 0,5 1,7 5,0 16 8 32 17 ESE 1035,3 20 0 0,0
13.01.2018 12:00:00 -0,7 -4,6 -0,8 0,5 1,7 5,0 17 9 33 18 SE 1035,4 24 0 0,0
13.01.2018 11:00:00 -0,8 -4,1 -1,0 0,5 1,7 5,0 16 9 32 17 SE 1035,6 24 6 0,0
13.01.2018 10:00:00 -1,0 -4,0 -1,8 0,5 1,8 5,0 14 7 36 19 ESE 1035,3 17 27 0,0
13.01.2018 09:00:00 -0,7 -3,2 -1,1 0,5 1,8 5,0 19 10 36 19 SE 1034,9 10 0 0,0
13.01.2018 08:00:00 -0,5 -2,7 -0,9 0,5 1,8 5,0 11 6 27 14 SE 1034,6 9 0 0,0
13.01.2018 07:00:00 -0,5 -2,4 -0,8 0,5 1,8 5,0 9 5 25 14 SE 1034,6 7 0 0,0
13.01.2018 06:00:00 -0,5 -2,2 -0,8 0,5 1,8 5,0 9 5 21 11 ESE 1034,6 4,8 0 0,0
13.01.2018 05:00:00 -0,5 -2,4 -0,8 0,5 1,9 5,0 12 7 24 13 ESE 1034,6 7 0 0,0
13.01.2018 04:00:00 -0,5 -2,4 -0,8 0,6 1,9 5,0 11 6 26 14 SE 1034,6 7 0 0,0
13.01.2018 03:00:00 -0,4 -1,8 -0,8 0,6 1,9 5,0 13 7 25 14 ESE 1034,5 2,9 0 0,0
13.01.2018 02:00:00 -0,4 -1,5 -0,7 0,6 1,9 5,0 8 4 22 12 ESE 1034,3 2,4 0 0,0
13.01.2018 01:00:00 -0,5 -1,1 -0,7 0,6 2,0 5,0 8 4 18 10 E 1034,2 1,8 0 0,1
13.01.2018 00:00:00 -0,4 -1,0 -0,6 0,7 2,0 5,0 8 4 22 12 ESE 1034,1 2,0 0 0,2
12.01.2018 23:00:00 0,0 -0,6 -0,2 0,9 2,1 5,0 6 4 16 9 ESE 1034,1 1,9 0 0,0
12.01.2018 22:00:00 0,4 -0,8 0,0 1,0 2,1 5,0 10 5 22 12 ESE 1033,9 4,1 0 0,0
12.01.2018 21:00:00 0,5 -0,3 0,2 1,1 2,1 5,0 7 4 21 11 ESE 1033,5 5 0 0,0
12.01.2018 20:00:00 0,6 0,1 0,2 1,2 2,1 5,0 9 5 19 11 ESE 1033,0 5 0 0,0
12.01.2018 19:00:00 0,7 0,2 0,4 1,2 2,1 5,0 13 7 24 13 E 1032,6 3,6 0 0,0
12.01.2018 18:00:00 0,8 0,3 0,5 1,3 2,1 5,0 14 7 22 12 E 1032,4 5 0 0,0
12.01.2018 17:00:00 0,9 0,4 0,6 1,5 2,1 5,0 12 6 22 12 E 1032,1 6 0 0,0
12.01.2018 16:00:00 1,4 0,0 1,1 1,7 2,1 5,0 9 5 23 12 E 1031,8 10 0 0,0
12.01.2018 15:00:00 1,6 0,0 1,4 1,9 2,0 5,1 9 5 25 14 E 1031,4 11 0 0,0
12.01.2018 14:00:00 1,6 -0,1 1,5 1,8 2,0 5,1 11 6 24 13 E 1031,0 11 0 0,0
12.01.2018 13:00:00 1,6 -0,1 1,5 1,7 1,9 5,1 13 7 22 12 E 1031,0 12 0 0,0
12.01.2018 12:00:00 1,5 0,3 1,5 1,6 1,9 5,1 11 6 21 12 E 1030,8 12 0 0,0
12.01.2018 11:00:00 1,4 0,3 1,3 1,3 1,8 5,1 12 6 21 11 E 1030,7 11 0 0,0
12.01.2018 10:00:00 1,4 0,3 1,1 1,1 1,8 5,1 12 7 23 12 E 1030,1 12 0 0,0
12.01.2018 09:00:00 1,3 0,3 1,0 1,0 1,8 5,1 14 8 25 14 ENE 1029,5 11 0 0,0
12.01.2018 08:00:00 0,8 0,2 0,5 1,0 1,8 5,1 7 4 16 9 E 1028,7 10 0 0,0
12.01.2018 07:00:00 0,7 0,5 0,4 1,0 1,8 5,1 10 5 22 12 E 1028,2 5 0 0,0
12.01.2018 06:00:00 0,9 0,1 0,6 1,1 1,8 5,1 9 5 24 13 E 1027,7 13 0 0,0
12.01.2018 05:00:00 1,0 0,7 0,7 1,1 1,8 5,1 11 6 23 13 E 1027,5 6 0 0,0
12.01.2018 04:00:00 1,1 0,9 0,8 1,1 1,7 5,1 9 5 18 10 E 1027,0 3,5 0 0,0
12.01.2018 03:00:00 1,1 0,8 0,8 1,1 1,7 5,1 10 5 21 11 E 1026,2 3,8 0 0,0
12.01.2018 02:00:00 1,3 0,7 0,9 1,1 1,7 5,2 11 6 21 11 E 1025,7 4,2 0 0,0
12.01.2018 01:00:00 1,3 0,7 0,9 1,1 1,6 5,2 9 5 15 8 E 1025,2 4,0 0 0,0
12.01.2018 00:00:00 1,3 0,9 0,9 1,0 1,6 5,2 8 5 15 8 E 1024,7 3,5 0 0,1
11.01.2018 23:00:00 1,2 0,7 0,9 1,0 1,5 5,2 9 5 16 9 E 1024,0 2,5 0 0,0
11.01.2018 22:00:00 1,3 0,9 1,0 1,0 1,5 5,2 9 5 17 9 E 1023,6 2,7 0 0,0
11.01.2018 21:00:00 1,4 0,9 1,1 0,9 1,4 5,2 8 5 16 9 ESE 1022,6 3,0 0 0,0
11.01.2018 20:00:00 1,3 1,0 1,1 0,8 1,4 5,2 8 4 16 9 E 1022,1 2,6 0 0,0
11.01.2018 19:00:00 1,3 1,2 1,1 0,7 1,3 5,2 7 4 16 9 E 1021,2 2,1 0 0,0
11.01.2018 18:00:00 1,4 1,3 1,1 0,5 1,3 5,2 6 4 12 7 E 1020,8 1,7 0 0,0
11.01.2018 17:00:00 1,4 1,2 1,1 0,4 1,3 5,2 5 3 14 8 E 1020,2 1,5 0 0,0
11.01.2018 16:00:00 1,4 1,1 1,2 0,3 1,2 5,3 8 4 16 9 ESE 1019,3 1,3 0 0,0
11.01.2018 15:00:00 1,5 1,0 1,3 0,1 1,2 5,3 8 5 16 9 ESE 1018,7 1,1 0 0,0
11.01.2018 14:00:00 1,6 1,0 1,5 0,1 1,2 5,3 8 4 16 9 ESE 1018,2 1,9 0 0,0
11.01.2018 13:00:00 1,6 1,1 2,0 0,0 1,2 5,3 9 5 16 9 E 1017,9 2,9 0 0,0
11.01.2018 12:00:00 1,1 1,0 1,0 0,0 1,2 5,3 5 3 13 7 ESE 1017,7 4,2 0 0,8
11.01.2018 11:00:00 1,9 1,9 1,6 0,0 1,2 5,3 5 3 10 5 E 1017,4 3,8 0 1,7
11.01.2018 10:00:00 1,9 1,9 1,6 0,0 1,2 5,3 6 3 10 5 ENE 1016,9 2,5 0 1,4
11.01.2018 09:00:00 1,8 1,8 1,5 0,0 1,2 5,3 4 2 9 5 ENE 1016,2 1,7 0 1,1
11.01.2018 08:00:00 1,9 1,9 1,5 0,0 1,2 5,3 6 3 8 5 ENE 1015,9 1,6 0 0,9
11.01.2018 07:00:00 1,7 1,7 1,1 0,0 1,2 5,3 3 2 4 2 NE 1015,5 0,8 0 0,9
11.01.2018 06:00:00 1,8 1,8 1,4 0,0 1,2 5,4 0 0 8 4 N 1015,3 1,6 0 1,2
11.01.2018 05:00:00 1,8 1,8 1,3 0,0 1,2 5,4 4 2 9 5 E 1015,1 1,8 0 0,2
11.01.2018 04:00:00 1,9 1,9 1,5 0,0 1,2 5,4 7 4 15 8 E 1015,1 2,2 0 0,0
11.01.2018 03:00:00 1,8 1,7 1,4 0,0 1,3 5,4 8 4 12 6 E 1015,1 2,1 0 0,0
11.01.2018 02:00:00 1,8 1,5 1,4 0,0 1,3 5,4 6 3 10 5 E 1015,1 2,2 0 0,0
11.01.2018 01:00:00 1,3 1,2 0,9 0,0 1,3 5,4 5 3 8 5 ENE 1014,9 2,9 0 0,0
11.01.2018 00:00:00 1,4 1,1 0,8 0,0 1,3 5,4 5 3 7 4 E 1014,9 3,6 0 0,0
10.01.2018 23:00:00 1,3 1,0 0,6 0,0 1,3 5,4 2 1 6 3 E 1014,8 3,8 0 0,0
10.01.2018 22:00:00 1,5 1,0 0,0 0,0 1,3 5,4 2 1 6 4 S 1014,5 4,4 0 0,0
10.01.2018 21:00:00 1,8 1,1 0,7 0,0 1,3 5,5 3 2 9 5 SE 1014,4 4,9 0 0,0
10.01.2018 20:00:00 2,0 1,1 1,0 0,0 1,3 5,5 4 2 12 6 ESE 1014,4 6 0 0,0
10.01.2018 19:00:00 2,0 1,2 1,5 0,0 1,3 5,5 5 3 11 6 ESE 1014,4 5 0 0,0
10.01.2018 18:00:00 1,6 1,3 1,1 0,0 1,3 5,5 5 3 8 5 E 1014,1 4,2 0 0,0
10.01.2018 17:00:00 1,8 1,4 0,1 0,0 1,3 5,5 4 2 11 6 SE 1014,1 4,5 0 0,0
10.01.2018 16:00:00 2,4 1,5 1,4 0,0 1,3 5,5 6 3 11 6 ESE 1013,8 6 0 0,0
10.01.2018 15:00:00 2,9 2,2 2,5 0,0 1,3 5,5 5 3 13 7 E 1013,9 4,8 0 0,0
10.01.2018 14:00:00 2,9 2,0 2,2 0,0 1,3 5,5 6 3 18 10 SSE 1013,7 5 0 0,0
10.01.2018 13:00:00 3,0 2,0 2,5 0,0 1,3 5,6 11 6 16 9 SSE 1013,9 6 0 0,0
10.01.2018 12:00:00 3,0 2,2 2,6 0,0 1,3 5,6 7 4 15 8 SSE 1014,3 6 0 0,0
10.01.2018 11:00:00 2,8 2,0 2,3 0,0 1,3 5,6 10 5 20 11 SSE 1014,5 6 0 0,0
10.01.2018 10:00:00 2,4 1,6 1,8 0,0 1,3 5,6 11 6 18 10 SSE 1014,3 6 0 0,0
10.01.2018 09:00:00 1,9 1,5 1,3 0,0 1,3 5,6 6 4 15 8 SE 1014,1 4,3 0 0,0
10.01.2018 08:00:00 1,6 1,2 1,0 0,0 1,3 5,6 5 3 15 8 SE 1014,1 6 0 0,0

tt = temperature
td = dewpoint
tt 5cm = temperature 5cm
tt -5cm = temperature -5cm
tt -20cm = temperature -20cm
tt -100cm = temperature -100cm
ff = wind speed
fx = gusts
dd = wind direction
ppp = reduced air pressure
vv = visibility
sd = sunshine duration
rr = precipitation

Next stations